Weather in Makushino

Russia / Kurgan Oblast     55°12′18″N   67°14′54″E
temp.,
°C
wind,
m/s
gust,
m/s
humid.,
%
clouds,
%
prec.,
mm/h
press.,
hPa
HPBL,
m
24 july, sat
sat2423:00+21ne127527 0.0 100114
02:00+18n489596 1.6 1002206
05:00+17nw229586 1.7 100363
08:00+20nw1182100 0.0 1003168
11:00+20ne2387100 0.4 100489
14:00+27sse3553100 0.0 1003878
17:00+25ssw51055100 0.1 1004592
20:00+22wnw3372100 0.1 100460
25 july, sun
sun2523:00+19nnw3496100 0.8 100596
02:00+18ssw1296100 4.3 100458
05:00+18nnw3498100 7.4 1004117
08:00+18nnw5794100 2.1 1005487
11:00+20n6975100 3.9 1005941
14:00+23nnw895889 0.6 10061573
17:00+19wnw2373100 1.1 100757
20:00+17nnw813816 1.1 1009505
26 july, mon
mon2623:00+13nw714880 1.4 1011494
02:00+11nw512920 0.0 1012376
05:00+9wnw411890 0.0 1014238
08:00+14nw610625 0.0 1014473
11:00+18nw710475 0.0 10141682
14:00+19nw7941100 0.0 10142462
17:00+17nw6104899 0.0 10151517
20:00+15w4855100 0.0 1015313
27 july, tue
tue2723:00+14wnw4861100 0.0 1015263
02:00+13wnw4861100 0.0 1015245
05:00+13wnw4964100 0.0 1015283
08:00+15w466053 0.0 1015396
11:00+20w78426 0.0 10141711
14:00+22w7843100 0.0 10122243
17:00+19w796747 0.6 10121007
20:00+14wsw4891100 0.8 1012241
28 july, wed
wed2823:00+14wsw389085 1.3 1011260
02:00+11wsw369479 0.0 1011117
05:00+11w339429 0.0 101051
08:00+15wnw238116 0.0 1011423
11:00+18nw556321 0.4 10101188
14:00+19nnw445795 1.5 10101450
17:00+18nnw6552100 1.8 10111158
20:00+15n22591 0.0 101236